Williston, ND

1:41 PM CDT on September 30, 2016 (GMT -0500)
Sloulin International

Weather History for KISN - February, 2014

Change the Weather History Date:

Thursday, February 6, 2014

  Actual Average Record
Temperature  
Mean Temperature -1 °F 14 °F  
Max Temperature 5 °F 25 °F 52 °F (1963)
Min Temperature -7 °F 3 °F -34 °F (1914)
Degree Days  
Heating Degree Days 66 51  
Month to date heating degree days 374 309  
Since 1 July heating degree days 5773 5730  
Cooling Degree Days 0 0  
Month to date cooling degree days 0 0  
Year to date cooling degree days 0 0  
Moisture  
Dew Point -11 °F    
Average Humidity 65    
Maximum Humidity 75    
Minimum Humidity 54    
Precipitation  
Precipitation T in 0.01 in 0.33 in (1945)
Month to date precipitation 0.01 0.07  
Year to date precipitation 0.19 0.66  
Sea Level Pressure  
Sea Level Pressure 30.42 in    
Wind  
Wind Speed 13 mph (WSW)    
Max Wind Speed 22 mph    
Max Gust Speed 29 mph    
Visibility 10 miles    
Events      
T = Trace of Precipitation, MM = Missing Value Source: NWS Daily Summary

Daily Weather History Graph

Daily Weather History Graph

Search for Another Location

Airport or City:

Trip Planner

Search our weather history database for the weather conditions in past years. The results will help you decide how hot, cold, wet, or windy it might be!

Date:

Astronomy

Feb. 06, 2014 Rise Set
Actual Time 8:15 AM CST 6:02 PM CST
Civil Twilight 7:42 AM CST 6:35 PM CST
Nautical Twilight 7:05 AM CST 7:12 PM CST
Astronomical Twilight 6:29 AM CST 7:48 PM CST
Moon 11:34 AM CST (2/6) 1:33 AM CST (2/6)
Length of Visible Light 10h 52m
Length of Day
9h 46m
Waxing Crescent, 49% of the Moon is Illuminated
Feb 6
Waxing Crescent
Feb 6
First Quarter
Feb 14
Full
Feb 22
Last Quarter
Mar 1
New

Hourly Weather History & Observations

Time (CST) Temp. Windchill Dew Point Humidity Pressure Visibility Wind Dir Wind Speed Gust Speed Precip Events Conditions
12:10 AM -5.1 °F -21.5 °F -11.9 °F 72% 30.51 in 10.0 mi West 9.2 mph - N/A   Scattered Clouds
12:52 AM -6.0 °F -23.6 °F -11.9 °F 75% 30.68 in 10.0 mi West 10.4 mph - N/A   Mostly Cloudy
1:52 AM -6.0 °F -23.6 °F -13.0 °F 72% 30.65 in 10.0 mi West 10.4 mph - N/A   Scattered Clouds
2:12 AM -6.0 °F -24.6 °F -13.0 °F 72% 30.46 in 10.0 mi West 11.5 mph - N/A   Mostly Cloudy
2:52 AM -6.0 °F -22.6 °F -13.0 °F 72% 30.63 in 10.0 mi West 9.2 mph - N/A   Overcast
3:52 AM -4.0 °F -23.0 °F -11.0 °F 72% 30.59 in 10.0 mi West 12.7 mph - N/A   Overcast
4:52 AM -2.9 °F -22.4 °F -9.9 °F 72% 30.58 in 10.0 mi WNW 13.8 mph 19.6 mph N/A   Overcast
5:52 AM -2.9 °F -23.8 °F -9.9 °F 72% 30.57 in 10.0 mi West 16.1 mph - 0.00 in   Overcast
6:52 AM -4.0 °F - -11.0 °F 72% 30.56 in 10.0 mi Calm Calm - 0.00 in   Overcast
6:58 AM -4.0 °F - -11.0 °F 72% 30.38 in 10.0 mi North - - N/A   Overcast
7:52 AM -4.0 °F -19.0 °F -11.0 °F 72% 30.54 in 10.0 mi WSW 8.1 mph - N/A   Overcast
8:52 AM -5.1 °F -26.6 °F -11.9 °F 72% 30.53 in 10.0 mi West 16.1 mph - N/A   Overcast
9:47 AM -6.0 °F -27.7 °F -13.0 °F 72% 30.34 in 10.0 mi West 16.1 mph - N/A   Overcast
9:52 AM -6.0 °F -28.4 °F -13.0 °F 72% 30.53 in 10.0 mi West 17.3 mph - N/A   Overcast
10:52 AM -5.1 °F -26.6 °F -13.0 °F 69% 30.51 in 10.0 mi West 16.1 mph - N/A   Mostly Cloudy
10:59 AM -4.0 °F -24.5 °F -13.0 °F 65% 30.32 in 10.0 mi West 15.0 mph - N/A   Scattered Clouds
11:52 AM -0.9 °F -20.6 °F -11.0 °F 62% 30.49 in 10.0 mi West 15.0 mph - N/A   Clear
12:52 PM 1.0 °F -18.0 °F -9.9 °F 60% 30.44 in 10.0 mi West 15.0 mph - N/A   Clear
1:52 PM 3.0 °F -16.7 °F -9.0 °F 57% 30.40 in 10.0 mi West 17.3 mph 24.2 mph N/A   Clear
2:52 PM 3.9 °F -16.1 °F -9.0 °F 55% 30.35 in 10.0 mi West 18.4 mph - N/A   Clear
3:52 PM 3.9 °F -16.6 °F -9.0 °F 55% 30.33 in 10.0 mi WSW 19.6 mph 28.8 mph N/A   Clear
4:52 PM 5.0 °F -16.2 °F -9.9 °F 50% 30.30 in 10.0 mi West 21.9 mph 25.3 mph N/A   Clear
5:52 PM 3.0 °F -14.8 °F -9.9 °F 55% 30.28 in 10.0 mi WSW 13.8 mph - N/A   Clear
6:52 PM 1.0 °F -14.9 °F -11.0 °F 57% 30.27 in 10.0 mi WSW 10.4 mph - N/A   Clear
7:52 PM -0.0 °F -18.7 °F -11.0 °F 60% 30.25 in 10.0 mi WSW 13.8 mph - N/A   Clear
8:52 PM -2.0 °F -17.7 °F -11.0 °F 66% 30.24 in 10.0 mi SW 9.2 mph - N/A   Clear
9:52 PM -5.1 °F -19.1 °F -13.0 °F 69% 30.23 in 10.0 mi SSW 6.9 mph - N/A   Clear
10:52 PM -5.1 °F -22.5 °F -14.1 °F 65% 30.21 in 10.0 mi SSW 10.4 mph - N/A   Clear
11:52 PM -6.0 °F -24.6 °F -14.1 °F 68% 30.19 in 10.0 mi SW 11.5 mph - N/A   Clear